| time (UTC) | temp F | wind direction | speed MPH | gust MPH | rain 1hr in | rain 24hr in | rain mn in | humidity % | barometer mb |
| 20260901112532 | 66 | 240 | 3.0 | 8.0 | 0.00 | 0.00 | 0.00 | 100 | 1021.4 |
| 20260901112032 | 66 | 188 | 3.0 | 9.0 | 0.00 | 0.00 | 0.00 | 100 | 1021.6 |
| 20260901111553 | 66 | 160 | 2.0 | 9.0 | 0.00 | 0.00 | 0.00 | 100 | 1021.5 |
| 20260901111036 | 66 | 227 | 3.0 | 8.0 | 0.00 | 0.00 | 0.00 | 100 | 1021.4 |
| 20260901110534 | 66 | 215 | 3.0 | 8.0 | 0.00 | 0.00 | 0.00 | 100 | 1021.5 |
| 20260901110050 | 66 | 236 | 1.0 | 8.0 | 0.00 | 0.00 | 0.00 | 100 | 1021.5 |
| 20260901105534 | 66 | 223 | 2.0 | 6.0 | 0.00 | 0.00 | 0.00 | 100 | 1021.6 |
| 20260901105032 | 66 | 252 | 1.0 | 9.0 | 0.00 | 0.00 | 0.00 | 100 | 1021.6 |
| 20260901104553 | 65 | 157 | 2.0 | 9.0 | 0.00 | 0.00 | 0.00 | 100 | 1021.6 |
| 20260901104033 | 65 | 238 | 3.0 | 10.0 | 0.00 | 0.00 | 0.00 | 100 | 1021.8 |
| 20260901103532 | 65 | 169 | 3.0 | 10.0 | 0.00 | 0.00 | 0.00 | 100 | 1021.9 |
| 20260901103051 | 64 | 269 | 2.0 | 6.0 | 0.00 | 0.00 | 0.00 | 100 | 1021.8 |
| 20260901102533 | 64 | 298 | 2.0 | 8.0 | 0.00 | 0.00 | 0.00 | 100 | 1021.8 |
| 20260901102033 | 64 | 311 | 2.0 | 9.0 | 0.00 | 0.00 | 0.00 | 100 | 1022.0 |
| 20260901101550 | 64 | 247 | 2.0 | 9.0 | 0.00 | 0.00 | 0.00 | 100 | 1021.9 |
| 20260901101033 | 64 | 318 | 3.0 | 9.0 | 0.00 | 0.00 | 0.00 | 100 | 1021.9 |
| 20260901100533 | 64 | 250 | 3.0 | 8.0 | 0.00 | 0.00 | 0.00 | 100 | 1021.9 |
| 20260901095532 | 63 | 200 | 1.0 | 6.0 | 0.00 | 0.00 | 0.00 | 100 | 1021.9 |
| 20260901095032 | 63 | 161 | 0.0 | 6.0 | 0.00 | 0.00 | 0.00 | 100 | 1022.1 |
| 20260901094551 | 63 | 0 | 2.0 | 8.0 | 0.00 | 0.00 | 0.00 | 100 | 1022.1 |
| 20260901094033 | 62 | 0 | 0.0 | 8.0 | 0.00 | 0.00 | 0.00 | 100 | 1022.1 |
| 20260901093532 | 62 | 0 | 0.0 | 1.0 | 0.00 | 0.00 | 0.00 | 100 | 1022.2 |
| 20260901093048 | 62 | 0 | 0.0 | 3.0 | 0.00 | 0.00 | 0.00 | 100 | 1022.1 |
| 20260901092534 | 62 | 0 | 0.0 | 3.0 | 0.00 | 0.00 | 0.00 | 100 | 1022.2 |
| 20260901092033 | 61 | 0 | 0.0 | 4.0 | 0.00 | 0.00 | 0.00 | 100 | 1022.1 |
| 20260901091555 | 61 | 0 | 0.0 | 4.0 | 0.00 | 0.00 | 0.00 | 100 | 1022.2 |
| 20260901091032 | 61 | 259 | 0.0 | 1.0 | 0.00 | 0.00 | 0.00 | 100 | 1022.0 |
| 20260901090532 | 61 | 0 | 0.0 | 3.0 | 0.00 | 0.00 | 0.00 | 100 | 1022.0 |
| 20260901090053 | 61 | 0 | 0.0 | 3.0 | 0.00 | 0.00 | 0.00 | 100 | 1022.0 |
| 20260901085532 | 60 | 241 | 0.0 | 3.0 | 0.00 | 0.00 | 0.00 | 100 | 1021.9 |
| 20260901085032 | 60 | 0 | 0.0 | 4.0 | 0.00 | 0.00 | 0.00 | 100 | 1021.9 |
| 20260901084559 | 60 | 0 | 1.0 | 4.0 | 0.00 | 0.00 | 0.00 | 100 | 1021.9 |
| 20260901084035 | 59 | 0 | 0.0 | 0.0 | 0.00 | 0.00 | 0.00 | 100 | 1022.0 |
| 20260901083536 | 59 | 0 | 0.0 | 1.0 | 0.00 | 0.00 | 0.00 | 100 | 1022.0 |
| 20260901083057 | 58 | 0 | 0.0 | 1.0 | 0.00 | 0.00 | 0.00 | 100 | 1021.9 |
| 20260901082531 | 58 | 0 | 0.0 | 0.0 | 0.00 | 0.00 | 0.00 | 100 | 1021.8 |
| 20260901082032 | 58 | 0 | 0.0 | 0.0 | 0.00 | 0.00 | 0.00 | 100 | 1021.8 |
| 20260901081556 | 58 | 0 | 0.0 | 0.0 | 0.00 | 0.00 | 0.00 | 100 | 1021.8 |
| 20260901081032 | 58 | 0 | 0.0 | 0.0 | 0.00 | 0.00 | 0.00 | 100 | 1021.8 |
| 20260901080532 | 57 | 0 | 0.0 | 2.0 | 0.00 | 0.00 | 0.00 | 100 | 1021.6 |
| 20260901080053 | 57 | 0 | 0.0 | 3.0 | 0.00 | 0.00 | 0.00 | 100 | 1021.6 |
| 20260901075532 | 57 | 0 | 0.0 | 3.0 | 0.00 | 0.00 | 0.00 | 100 | 1021.6 |
| 20260901075039 | 57 | 0 | 0.0 | 4.0 | 0.00 | 0.00 | 0.00 | 100 | 1021.6 |
| 20260901074555 | 57 | 248 | 0.0 | 4.0 | 0.00 | 0.00 | 0.00 | 100 | 1021.6 |
| 20260901074037 | 57 | 0 | 0.0 | 3.0 | 0.00 | 0.00 | 0.00 | 100 | 1021.5 |
| 20260901073535 | 56 | 0 | 0.0 | 4.0 | 0.00 | 0.00 | 0.00 | 100 | 1021.6 |
| 20260901073053 | 56 | 0 | 0.0 | 4.0 | 0.00 | 0.00 | 0.00 | 100 | 1021.5 |
| 20260901072536 | 56 | 261 | 0.0 | 3.0 | 0.00 | 0.00 | 0.00 | 100 | 1021.6 |
| 20260901072031 | 56 | 269 | 1.0 | 4.0 | 0.00 | 0.00 | 0.00 | 100 | 1021.5 |
| 20260901071550 | 56 | 0 | 0.0 | 4.0 | 0.00 | 0.00 | 0.00 | 100 | 1021.5 |
| 20260901071033 | 56 | 0 | 0.0 | 3.0 | 0.00 | 0.00 | 0.00 | 100 | 1021.5 |
| 20260901070531 | 56 | 0 | 0.0 | 3.0 | 0.00 | 0.00 | 0.00 | 100 | 1021.5 |
| 20260901070058 | 55 | 244 | 0.0 | 3.0 | 0.00 | 0.00 | 0.00 | 100 | 1021.4 |
| 20260901065535 | 55 | 0 | 0.0 | 3.0 | 0.00 | 0.00 | 0.00 | 100 | 1021.4 |
| 20260901065033 | 55 | 250 | 0.0 | 3.0 | 0.00 | 0.00 | 0.00 | 100 | 1021.3 |
| 20260901064555 | 55 | 0 | 0.0 | 3.0 | 0.00 | 0.00 | 0.00 | 100 | 1021.3 |
| 20260901064035 | 55 | 0 | 0.0 | 4.0 | 0.00 | 0.00 | 0.00 | 100 | 1021.2 |
| 20260901063533 | 55 | 246 | 0.0 | 4.0 | 0.00 | 0.00 | 0.00 | 100 | 1021.2 |
| 20260901063113 | 55 | 0 | 0.0 | 4.0 | 0.00 | 0.00 | 0.00 | 100 | 1021.1 |
| 20260901062532 | 55 | 0 | 0.0 | 4.0 | 0.00 | 0.00 | 0.00 | 100 | 1021.1 |
| 20260901062035 | 54 | 245 | 0.0 | 3.0 | 0.00 | 0.00 | 0.00 | 100 | 1021.1 |
| 20260901061549 | 54 | 0 | 0.0 | 3.0 | 0.00 | 0.00 | 0.00 | 100 | 1021.1 |
| 20260901061034 | 54 | 238 | 0.0 | 3.0 | 0.00 | 0.00 | 0.00 | 100 | 1021.1 |
| 20260901060533 | 54 | 0 | 0.0 | 2.0 | 0.00 | 0.00 | 0.00 | 100 | 1021.0 |
| 20260901060052 | 54 | 0 | 0.0 | 2.0 | 0.00 | 0.00 | 0.00 | 100 | 1021.0 |
| 20260901055538 | 54 | 0 | 0.0 | 1.0 | 0.00 | 0.00 | 0.00 | 100 | 1020.9 |
| 20260901055032 | 53 | 0 | 0.0 | 1.0 | 0.00 | 0.00 | 0.00 | 100 | 1021.0 |
| 20260901054547 | 53 | 0 | 0.0 | 3.0 | 0.00 | 0.00 | 0.00 | 100 | 1020.9 |
| 20260901054034 | 53 | 0 | 0.0 | 3.0 | 0.00 | 0.00 | 0.00 | 100 | 1020.9 |
| 20260901053532 | 53 | 0 | 0.0 | 1.0 | 0.00 | 0.00 | 0.00 | 100 | 1020.8 |
| 20260901053100 | 53 | 0 | 0.0 | 1.0 | 0.00 | 0.00 | 0.00 | 100 | 1020.7 |
| 20260901052535 | 53 | 0 | 0.0 | 1.0 | 0.00 | 0.00 | 0.00 | 100 | 1020.7 |
| 20260901052035 | 53 | 0 | 0.0 | 0.0 | 0.00 | 0.00 | 0.00 | 100 | 1020.6 |
| 20260901051613 | 53 | 0 | 0.0 | 0.0 | 0.00 | 0.00 | 0.00 | 100 | 1020.7 |
| 20260901051035 | 53 | 0 | 0.0 | 0.0 | 0.00 | 0.00 | 0.00 | 100 | 1020.7 |
| 20260901050533 | 53 | 0 | 0.0 | 1.0 | 0.00 | 0.00 | 0.00 | 100 | 1020.7 |
| 20260901050050 | 53 | 0 | 0.0 | 2.0 | 0.00 | 0.00 | 0.00 | 100 | 1020.7 |
| 20260901045531 | 53 | 0 | 0.0 | 2.0 | 0.00 | 0.00 | 0.00 | 100 | 1020.6 |
| 20260901045034 | 53 | 0 | 0.0 | 2.0 | 0.00 | 0.00 | 0.00 | 100 | 1020.6 |
| 20260901044546 | 53 | 247 | 0.0 | 2.0 | 0.00 | 0.00 | 0.00 | 100 | 1020.4 |
| 20260901044035 | 53 | 0 | 0.0 | 2.0 | 0.00 | 0.00 | 0.00 | 100 | 1020.4 |
| 20260901043535 | 53 | 0 | 0.0 | 1.0 | 0.00 | 0.00 | 0.00 | 100 | 1020.4 |
| 20260901043057 | 53 | 0 | 0.0 | 0.0 | 0.00 | 0.00 | 0.00 | 100 | 1020.5 |
| 20260901042544 | 53 | 0 | 0.0 | 3.0 | 0.00 | 0.00 | 0.00 | 100 | 1020.5 |
| 20260901042035 | 53 | 0 | 0.0 | 3.0 | 0.00 | 0.00 | 0.00 | 100 | 1020.4 |
| 20260901041553 | 53 | 0 | 0.0 | 2.0 | 0.00 | 0.00 | 0.00 | 100 | 1020.3 |
| 20260901041035 | 53 | 0 | 0.0 | 0.0 | 0.00 | 0.00 | 0.00 | 100 | 1020.3 |
| 20260901040533 | 53 | 0 | 0.0 | 1.0 | 0.00 | 0.00 | 0.00 | 100 | 1020.2 |
| 20260901040051 | 53 | 0 | 0.0 | 1.0 | 0.00 | 0.00 | 0.00 | 100 | 1020.2 |
| 20260901035531 | 54 | 0 | 0.0 | 1.0 | 0.00 | 0.00 | 0.00 | 100 | 1020.2 |
| 20260901035034 | 54 | 0 | 0.0 | 0.0 | 0.00 | 0.00 | 0.00 | 100 | 1020.2 |
| 20260901034555 | 54 | 0 | 0.0 | 0.0 | 0.00 | 0.00 | 0.00 | 100 | 1020.2 |
| 20260901034032 | 54 | 0 | 0.0 | 2.0 | 0.00 | 0.00 | 0.00 | 100 | 1020.2 |
| 20260901033534 | 54 | 0 | 0.0 | 2.0 | 0.00 | 0.00 | 0.00 | 100 | 1020.2 |
| 20260901033110 | 54 | 0 | 0.0 | 2.0 | 0.00 | 0.00 | 0.00 | 100 | 1020.2 |
| 20260901032532 | 54 | 0 | 0.0 | 2.0 | 0.00 | 0.00 | 0.00 | 100 | 1020.3 |
| 20260901032031 | 54 | 0 | 0.0 | 0.0 | 0.00 | 0.00 | 0.00 | 100 | 1020.3 |
| 20260901031554 | 54 | 0 | 0.0 | 1.0 | 0.00 | 0.00 | 0.00 | 100 | 1020.2 |
| 20260901031035 | 55 | 0 | 0.0 | 1.0 | 0.00 | 0.00 | 0.00 | 100 | 1020.3 |
| 20260901030533 | 55 | 0 | 0.0 | 1.0 | 0.00 | 0.00 | 0.00 | 100 | 1020.2 |
| 20260901030050 | 55 | 0 | 0.0 | 2.0 | 0.00 | 0.00 | 0.00 | 100 | 1020.2 |
| 20260901025534 | 55 | 0 | 0.0 | 3.0 | 0.00 | 0.02 | 0.00 | 100 | 1020.3 |
| 20260901025033 | 55 | 0 | 0.0 | 3.0 | 0.00 | 0.02 | 0.00 | 100 | 1020.2 |
| 20260901024550 | 55 | 0 | 0.0 | 3.0 | 0.00 | 0.02 | 0.00 | 100 | 1020.2 |
| 20260901024032 | 55 | 0 | 0.0 | 1.0 | 0.00 | 0.02 | 0.00 | 100 | 1020.2 |
| 20260901023531 | 55 | 0 | 0.0 | 0.0 | 0.00 | 0.02 | 0.00 | 100 | 1020.2 |
| 20260901023052 | 55 | 0 | 0.0 | 0.0 | 0.00 | 0.02 | 0.00 | 100 | 1020.1 |
| 20260901022535 | 56 | 0 | 0.0 | 0.0 | 0.00 | 0.02 | 0.00 | 100 | 1020.2 |
| 20260901022033 | 56 | 0 | 0.0 | 3.0 | 0.00 | 0.02 | 0.00 | 100 | 1020.1 |
| 20260901021554 | 56 | 0 | 0.0 | 3.0 | 0.00 | 0.02 | 0.00 | 100 | 1020.2 |
| 20260901021034 | 56 | 0 | 0.0 | 1.0 | 0.00 | 0.02 | 0.00 | 100 | 1020.2 |
| 20260901020535 | 56 | 0 | 0.0 | 1.0 | 0.00 | 0.02 | 0.00 | 100 | 1020.2 |
| 20260901020044 | 56 | 0 | 0.0 | 3.0 | 0.00 | 0.02 | 0.00 | 100 | 1020.2 |
| 20260901015533 | 56 | 0 | 0.0 | 3.0 | 0.00 | 0.03 | 0.00 | 100 | 1020.2 |
| 20260901015528 | 56 | 0 | 0.0 | 2.0 | 0.00 | 0.03 | 0.00 | 100 | 1020.2 |
| 20260901014033 | 57 | 0 | 0.0 | 4.0 | 0.00 | 0.03 | 0.00 | 100 | 1020.2 |
| 20260901013534 | 57 | 248 | 0.0 | 3.0 | 0.00 | 0.03 | 0.00 | 100 | 1020.1 |
| 20260901013047 | 57 | 264 | 0.0 | 3.0 | 0.00 | 0.03 | 0.00 | 100 | 1020.1 |
| 20260901012531 | 57 | 0 | 0.0 | 4.0 | 0.00 | 0.03 | 0.00 | 100 | 1020.0 |
| 20260901012031 | 57 | 230 | 0.0 | 4.0 | 0.00 | 0.03 | 0.00 | 100 | 1020.0 |
| 20260901011555 | 57 | 0 | 0.0 | 4.0 | 0.00 | 0.03 | 0.00 | 100 | 1020.0 |
| 20260901011035 | 57 | 248 | 0.0 | 4.0 | 0.00 | 0.03 | 0.00 | 100 | 1020.0 |
| 20260901010532 | 57 | 0 | 0.0 | 4.0 | 0.00 | 0.03 | 0.00 | 100 | 1019.9 |
| 20260901010054 | 57 | 0 | 0.0 | 5.0 | 0.00 | 0.03 | 0.00 | 100 | 1019.9 |
| 20260901005534 | 57 | 254 | 1.0 | 5.0 | 0.00 | 0.18 | 0.00 | 100 | 1019.8 |
| 20260901005036 | 57 | 242 | 0.0 | 4.0 | 0.00 | 0.18 | 0.00 | 100 | 1019.9 |
| 20260901004609 | 57 | 286 | 0.0 | 4.0 | 0.00 | 0.18 | 0.00 | 100 | 1019.9 |
| 20260901004035 | 57 | 0 | 1.0 | 4.0 | 0.00 | 0.18 | 0.00 | 100 | 1019.8 |
| 20260901003535 | 57 | 246 | 0.0 | 3.0 | 0.00 | 0.18 | 0.00 | 100 | 1019.9 |
| 20260901003048 | 57 | 0 | 0.0 | 4.0 | 0.00 | 0.18 | 0.00 | 100 | 1019.8 |
| 20260901002532 | 57 | 0 | 0.0 | 7.0 | 0.00 | 0.18 | 0.00 | 100 | 1019.7 |
| 20260901002033 | 58 | 0 | 1.0 | 7.0 | 0.00 | 0.18 | 0.00 | 100 | 1019.7 |
| 20260901001559 | 58 | 0 | 0.0 | 4.0 | 0.00 | 0.18 | 0.00 | 100 | 1019.7 |
| 20260901001034 | 58 | 0 | 1.0 | 4.0 | 0.00 | 0.18 | 0.00 | 100 | 1019.7 |
| 20260901000531 | 58 | 0 | 0.0 | 4.0 | 0.00 | 0.18 | 0.00 | 100 | 1019.7 |
| 20260901000103 | 58 | 0 | 0.0 | 3.0 | 0.00 | 0.18 | 0.00 | 100 | 1019.7 |
| 20260831235538 | 58 | 0 | 0.0 | 2.0 | 0.00 | 0.18 | 0.00 | 100 | 1019.6 |
| 20260831235036 | 58 | 0 | 0.0 | 4.0 | 0.00 | 0.18 | 0.00 | 100 | 1019.7 |
| 20260831234550 | 58 | 0 | 0.0 | 4.0 | 0.00 | 0.18 | 0.00 | 100 | 1019.5 |
| 20260831234033 | 58 | 224 | 0.0 | 4.0 | 0.00 | 0.18 | 0.00 | 100 | 1019.6 |
| 20260831233533 | 58 | 0 | 1.0 | 4.0 | 0.00 | 0.18 | 0.00 | 100 | 1019.6 |
| 20260831233045 | 58 | 258 | 0.0 | 4.0 | 0.00 | 0.18 | 0.00 | 100 | 1019.6 |
| 20260831232533 | 59 | 0 | 0.0 | 4.0 | 0.00 | 0.18 | 0.00 | 100 | 1019.6 |
| 20260831232033 | 59 | 0 | 0.0 | 4.0 | 0.00 | 0.18 | 0.00 | 100 | 1019.6 |
| 20260831231546 | 59 | 0 | 1.0 | 4.0 | 0.00 | 0.18 | 0.00 | 100 | 1019.4 |
| 20260831231034 | 59 | 0 | 0.0 | 3.0 | 0.00 | 0.18 | 0.00 | 100 | 1019.5 |
| 20260831230536 | 59 | 0 | 0.0 | 4.0 | 0.00 | 0.18 | 0.00 | 100 | 1019.4 |
| 20260831230051 | 59 | 256 | 0.0 | 4.0 | 0.00 | 0.18 | 0.00 | 100 | 1019.4 |
| 20260831225533 | 59 | 221 | 0.0 | 4.0 | 0.00 | 0.18 | 0.18 | 100 | 1019.5 |
| 20260831225032 | 59 | 0 | 1.0 | 6.0 | 0.00 | 0.18 | 0.18 | 100 | 1019.5 |
| 20260831224600 | 59 | 253 | 1.0 | 6.0 | 0.00 | 0.18 | 0.18 | 100 | 1019.4 |
| 20260831224032 | 59 | 257 | 0.0 | 6.0 | 0.00 | 0.18 | 0.18 | 100 | 1019.5 |
| 20260831223535 | 59 | 249 | 1.0 | 6.0 | 0.00 | 0.18 | 0.18 | 100 | 1019.7 |
| 20260831223054 | 60 | 0 | 0.0 | 4.0 | 0.00 | 0.18 | 0.18 | 100 | 1019.6 |
| 20260831222533 | 60 | 0 | 0.0 | 7.0 | 0.00 | 0.18 | 0.18 | 100 | 1019.5 |
| 20260831222034 | 60 | 0 | 0.0 | 7.0 | 0.00 | 0.18 | 0.18 | 100 | 1019.6 |
| 20260831221547 | 60 | 242 | 1.0 | 7.0 | 0.00 | 0.18 | 0.18 | 100 | 1019.6 |
| 20260831221033 | 60 | 272 | 2.0 | 7.0 | 0.00 | 0.18 | 0.18 | 100 | 1019.5 |
| 20260831220533 | 60 | 249 | 0.0 | 5.0 | 0.00 | 0.18 | 0.18 | 100 | 1019.5 |
| 20260831220045 | 60 | 252 | 0.0 | 3.0 | 0.00 | 0.18 | 0.18 | 100 | 1019.5 |
| 20260831215533 | 60 | 231 | 0.0 | 3.0 | 0.00 | 0.18 | 0.18 | 100 | 1019.4 |
| 20260831215033 | 60 | 0 | 0.0 | 3.0 | 0.00 | 0.18 | 0.18 | 100 | 1019.4 |
| 20260831214557 | 60 | 0 | 0.0 | 4.0 | 0.00 | 0.18 | 0.18 | 100 | 1019.4 |
| 20260831214037 | 61 | 234 | 1.0 | 5.0 | 0.00 | 0.18 | 0.18 | 100 | 1019.3 |
| 20260831213533 | 61 | 0 | 0.0 | 5.0 | 0.00 | 0.18 | 0.18 | 100 | 1019.2 |
| 20260831213056 | 61 | 239 | 0.0 | 5.0 | 0.00 | 0.18 | 0.18 | 100 | 1019.3 |
| 20260831212534 | 61 | 252 | 1.0 | 4.0 | 0.00 | 0.18 | 0.18 | 100 | 1019.2 |
| 20260831212032 | 61 | 0 | 0.0 | 4.0 | 0.00 | 0.18 | 0.18 | 100 | 1019.1 |
| 20260831211548 | 61 | 0 | 0.0 | 6.0 | 0.00 | 0.18 | 0.18 | 100 | 1019.1 |
| 20260831211033 | 61 | 248 | 1.0 | 6.0 | 0.00 | 0.18 | 0.18 | 100 | 1019.1 |
| 20260831210532 | 62 | 0 | 1.0 | 6.0 | 0.00 | 0.18 | 0.18 | 100 | 1019.1 |
| 20260831210045 | 62 | 265 | 0.0 | 5.0 | 0.00 | 0.18 | 0.18 | 100 | 1018.9 |
| 20260831205534 | 62 | 250 | 0.0 | 3.0 | 0.00 | 0.20 | 0.18 | 100 | 1018.8 |
| 20260831205032 | 62 | 0 | 0.0 | 3.0 | 0.00 | 0.20 | 0.18 | 100 | 1018.7 |
| 20260831204555 | 62 | 0 | 0.0 | 5.0 | 0.00 | 0.20 | 0.18 | 100 | 1018.8 |
| 20260831204033 | 62 | 0 | 1.0 | 5.0 | 0.00 | 0.20 | 0.18 | 100 | 1018.6 |
| 20260831203534 | 62 | 0 | 0.0 | 5.0 | 0.00 | 0.20 | 0.18 | 100 | 1018.6 |
| 20260831203059 | 62 | 237 | 1.0 | 5.0 | 0.00 | 0.20 | 0.18 | 100 | 1018.5 |
| 20260831202533 | 63 | 232 | 1.0 | 4.0 | 0.00 | 0.20 | 0.18 | 100 | 1018.5 |
| 20260831202036 | 63 | 264 | 1.0 | 4.0 | 0.00 | 0.20 | 0.18 | 100 | 1018.4 |
| 20260831201547 | 63 | 0 | 1.0 | 4.0 | 0.00 | 0.20 | 0.18 | 100 | 1018.4 |
| 20260831201033 | 63 | 240 | 1.0 | 4.0 | 0.00 | 0.20 | 0.18 | 100 | 1018.3 |
| 20260831200532 | 63 | 253 | 0.0 | 1.0 | 0.00 | 0.20 | 0.18 | 100 | 1018.2 |
| 20260831200049 | 64 | 0 | 0.0 | 0.0 | 0.00 | 0.20 | 0.18 | 100 | 1018.2 |
| 20260831195534 | 64 | 0 | 0.0 | 3.0 | 0.00 | 0.20 | 0.18 | 100 | 1018.1 |
| 20260831195035 | 64 | 0 | 0.0 | 4.0 | 0.00 | 0.20 | 0.18 | 100 | 1018.1 |
| 20260831194619 | 64 | 239 | 1.0 | 4.0 | 0.00 | 0.20 | 0.18 | 100 | 1018.0 |
| 20260831194035 | 64 | 0 | 0.0 | 4.0 | 0.00 | 0.20 | 0.18 | 100 | 1018.0 |
| 20260831193532 | 65 | 0 | 1.0 | 6.0 | 0.00 | 0.20 | 0.18 | 100 | 1017.9 |
| 20260831193052 | 65 | 263 | 0.0 | 6.0 | 0.00 | 0.20 | 0.18 | 100 | 1017.9 |
| 20260831192533 | 65 | 249 | 1.0 | 6.0 | 0.00 | 0.20 | 0.18 | 100 | 1017.8 |
| 20260831192034 | 65 | 263 | 0.0 | 7.0 | 0.00 | 0.20 | 0.18 | 100 | 1017.8 |
| 20260831191549 | 65 | 238 | 2.0 | 8.0 | 0.00 | 0.20 | 0.18 | 100 | 1017.7 |
| 20260831191034 | 65 | 267 | 3.0 | 8.0 | 0.00 | 0.20 | 0.18 | 100 | 1017.6 |
| 20260831190533 | 66 | 230 | 1.0 | 8.0 | 0.00 | 0.20 | 0.18 | 100 | 1017.6 |
| 20260831190116 | 66 | 277 | 2.0 | 8.0 | 0.00 | 0.20 | 0.18 | 100 | 1017.5 |
| 20260831185532 | 66 | 275 | 2.0 | 7.0 | 0.00 | 0.20 | 0.18 | 100 | 1017.4 |
| 20260831185034 | 66 | 213 | 2.0 | 10.0 | 0.00 | 0.20 | 0.18 | 100 | 1017.4 |
| 20260831184557 | 66 | 151 | 3.0 | 10.0 | 0.00 | 0.20 | 0.18 | 100 | 1017.4 |
| 20260831184035 | 66 | 227 | 2.0 | 7.0 | 0.00 | 0.20 | 0.18 | 100 | 1017.2 |
| 20260831183533 | 66 | 250 | 3.0 | 7.0 | 0.00 | 0.20 | 0.18 | 100 | 1017.3 |
| 20260831183044 | 67 | 229 | 2.0 | 7.0 | 0.00 | 0.20 | 0.18 | 100 | 1017.2 |
| 20260831182535 | 67 | 246 | 1.0 | 5.0 | 0.00 | 0.20 | 0.18 | 100 | 1017.1 |
| 20260831182034 | 67 | 242 | 1.0 | 5.0 | 0.00 | 0.20 | 0.18 | 100 | 1017.0 |
| 20260831181601 | 67 | 223 | 1.0 | 5.0 | 0.00 | 0.20 | 0.18 | 100 | 1017.1 |
| 20260831181032 | 67 | 242 | 2.0 | 9.0 | 0.00 | 0.20 | 0.18 | 100 | 1017.0 |
| 20260831180535 | 68 | 247 | 2.0 | 10.0 | 0.00 | 0.20 | 0.18 | 100 | 1016.9 |
| 20260831180054 | 68 | 200 | 3.0 | 11.0 | 0.00 | 0.20 | 0.18 | 100 | 1016.7 |
| 20260831175533 | 68 | 248 | 3.0 | 11.0 | 0.00 | 0.20 | 0.18 | 100 | 1016.7 |
| 20260831175033 | 68 | 234 | 5.0 | 11.0 | 0.00 | 0.20 | 0.18 | 100 | 1016.6 |
| 20260831174545 | 69 | 245 | 4.0 | 10.0 | 0.00 | 0.20 | 0.18 | 100 | 1016.5 |
| 20260831174035 | 69 | 241 | 4.0 | 12.0 | 0.00 | 0.20 | 0.18 | 100 | 1016.5 |
| 20260831173533 | 69 | 183 | 3.0 | 12.0 | 0.00 | 0.20 | 0.18 | 100 | 1016.5 |
| 20260831173055 | 69 | 279 | 4.0 | 14.0 | 0.00 | 0.20 | 0.18 | 100 | 1016.3 |
| 20260831172533 | 69 | 242 | 4.0 | 14.0 | 0.00 | 0.20 | 0.18 | 100 | 1016.3 |
| 20260831172033 | 69 | 198 | 3.0 | 11.0 | 0.00 | 0.20 | 0.18 | 100 | 1016.3 |
| 20260831171551 | 69 | 261 | 2.0 | 11.0 | 0.00 | 0.20 | 0.18 | 100 | 1016.2 |
| 20260831171033 | 70 | 221 | 4.0 | 11.0 | 0.00 | 0.20 | 0.18 | 100 | 1016.1 |
| 20260831170535 | 70 | 188 | 2.0 | 8.0 | 0.00 | 0.20 | 0.18 | 100 | 1016.0 |
| 20260831170059 | 70 | 250 | 2.0 | 8.0 | 0.00 | 0.20 | 0.18 | 100 | 1015.9 |
| 20260831165533 | 70 | 306 | 2.0 | 8.0 | 0.00 | 0.20 | 0.18 | 100 | 1015.8 |
| 20260831165032 | 70 | 249 | 2.0 | 10.0 | 0.00 | 0.20 | 0.18 | 100 | 1015.7 |
| 20260831164558 | 70 | 236 | 3.0 | 10.0 | 0.00 | 0.20 | 0.18 | 100 | 1015.7 |
| 20260831164033 | 70 | 236 | 4.0 | 9.0 | 0.00 | 0.20 | 0.18 | 100 | 1015.6 |
| 20260831163533 | 71 | 244 | 3.0 | 11.0 | 0.00 | 0.20 | 0.18 | 100 | 1015.5 |
| 20260831163052 | 72 | 238 | 4.0 | 14.0 | 0.00 | 0.20 | 0.18 | 100 | 1015.4 |
| 20260831162532 | 72 | 192 | 4.0 | 14.0 | 0.00 | 0.20 | 0.18 | 100 | 1015.5 |
| 20260831162033 | 72 | 294 | 5.0 | 11.0 | 0.00 | 0.20 | 0.18 | 100 | 1015.3 |
| 20260831161550 | 72 | 252 | 5.0 | 15.0 | 0.00 | 0.20 | 0.18 | 100 | 1015.3 |
| 20260831161034 | 71 | 227 | 6.0 | 15.0 | 0.00 | 0.20 | 0.18 | 100 | 1015.4 |
| 20260831160532 | 71 | 343 | 2.0 | 10.0 | 0.00 | 0.20 | 0.18 | 100 | 1015.2 |
| 20260831160056 | 71 | 130 | 3.0 | 10.0 | 0.00 | 0.20 | 0.18 | 100 | 1015.3 |
| 20260831155533 | 71 | 253 | 4.0 | 9.0 | 0.00 | 0.20 | 0.18 | 100 | 1015.2 |
| 20260831155033 | 72 | 183 | 2.0 | 12.0 | 0.00 | 0.20 | 0.18 | 100 | 1015.1 |
| 20260831154617 | 72 | 259 | 4.0 | 12.0 | 0.00 | 0.20 | 0.18 | 100 | 1015.2 |
| 20260831154032 | 72 | 217 | 4.0 | 11.0 | 0.00 | 0.20 | 0.18 | 100 | 1015.1 |
| 20260831153536 | 73 | 247 | 5.0 | 12.0 | 0.00 | 0.20 | 0.18 | 100 | 1015.2 |
| 20260831153118 | 73 | 224 | 4.0 | 12.0 | 0.00 | 0.20 | 0.18 | 100 | 1015.0 |
| 20260831152535 | 73 | 252 | 2.0 | 9.0 | 0.00 | 0.20 | 0.18 | 100 | 1015.0 |
| 20260831152033 | 72 | 248 | 4.0 | 13.0 | 0.00 | 0.20 | 0.18 | 100 | 1015.0 |
| 20260831151610 | 72 | 257 | 5.0 | 14.0 | 0.00 | 0.20 | 0.18 | 100 | 1015.0 |
| 20260831151033 | 72 | 237 | 5.0 | 14.0 | 0.00 | 0.20 | 0.18 | 100 | 1014.9 |
| 20260831150537 | 72 | 245 | 4.0 | 14.0 | 0.00 | 0.20 | 0.18 | 100 | 1014.9 |
| 20260831150100 | 73 | 184 | 4.0 | 13.0 | 0.00 | 0.20 | 0.18 | 100 | 1014.7 |
| 20260831145533 | 72 | 244 | 5.0 | 13.0 | 0.00 | 0.20 | 0.18 | 100 | 1014.7 |
| 20260831145032 | 72 | 242 | 4.0 | 12.0 | 0.00 | 0.20 | 0.18 | 100 | 1014.7 |
| 20260831144552 | 72 | 197 | 5.0 | 12.0 | 0.00 | 0.20 | 0.18 | 100 | 1014.7 |
| 20260831144033 | 72 | 246 | 5.0 | 12.0 | 0.00 | 0.20 | 0.18 | 100 | 1014.7 |
| 20260831143531 | 71 | 139 | 3.0 | 12.0 | 0.00 | 0.20 | 0.18 | 100 | 1014.6 |
| 20260831143051 | 71 | 229 | 2.0 | 8.0 | 0.00 | 0.20 | 0.18 | 100 | 1014.6 |
| 20260831142531 | 71 | 218 | 3.0 | 10.0 | 0.00 | 0.20 | 0.18 | 100 | 1014.5 |
| 20260831142032 | 71 | 225 | 2.0 | 12.0 | 0.00 | 0.20 | 0.18 | 100 | 1014.5 |
| 20260831141550 | 71 | 286 | 5.0 | 12.0 | 0.00 | 0.20 | 0.18 | 100 | 1014.5 |
| 20260831141032 | 71 | 144 | 3.0 | 10.0 | 0.00 | 0.20 | 0.18 | 100 | 1014.4 |
| 20260831140538 | 71 | 234 | 3.0 | 10.0 | 0.00 | 0.20 | 0.18 | 100 | 1014.4 |
| 20260831140055 | 71 | 306 | 2.0 | 12.0 | 0.00 | 0.20 | 0.18 | 100 | 1014.4 |
| 20260831135532 | 71 | 222 | 3.0 | 12.0 | 0.00 | 0.20 | 0.18 | 100 | 1014.3 |
| 20260831135037 | 70 | 140 | 2.0 | 10.0 | 0.00 | 0.20 | 0.18 | 100 | 1014.4 |
| 20260831134601 | 70 | 268 | 3.0 | 10.0 | 0.00 | 0.20 | 0.18 | 100 | 1014.5 |
| 20260831134031 | 69 | 16 | 1.0 | 9.0 | 0.00 | 0.20 | 0.18 | 100 | 1014.4 |
| 20260831133533 | 68 | 336 | 2.0 | 8.0 | 0.00 | 0.20 | 0.18 | 100 | 1014.4 |
| 20260831133102 | 68 | 250 | 3.0 | 10.0 | 0.00 | 0.20 | 0.18 | 100 | 1014.4 |
| 20260831132533 | 68 | 207 | 3.0 | 10.0 | 0.00 | 0.20 | 0.18 | 100 | 1014.3 |
| 20260831132034 | 69 | 198 | 2.0 | 10.0 | 0.00 | 0.20 | 0.18 | 100 | 1014.3 |
| 20260831131554 | 70 | 241 | 2.0 | 12.0 | 0.00 | 0.20 | 0.18 | 100 | 1014.1 |
| 20260831131035 | 70 | 249 | 3.0 | 12.0 | 0.00 | 0.20 | 0.18 | 100 | 1013.9 |
| 20260831130531 | 70 | 211 | 3.0 | 11.0 | 0.00 | 0.20 | 0.18 | 100 | 1013.9 |
| 20260831130058 | 69 | 244 | 4.0 | 11.0 | 0.00 | 0.20 | 0.18 | 100 | 1013.9 |
| 20260831125531 | 69 | 171 | 4.0 | 11.0 | 0.00 | 0.20 | 0.18 | 100 | 1013.8 |
| 20260831125032 | 69 | 246 | 3.0 | 12.0 | 0.00 | 0.20 | 0.18 | 100 | 1013.8 |
| 20260831124551 | 69 | 221 | 4.0 | 12.0 | 0.00 | 0.20 | 0.18 | 100 | 1013.9 |
| 20260831124031 | 69 | 210 | 3.0 | 10.0 | 0.00 | 0.20 | 0.18 | 100 | 1013.6 |
| 20260831123531 | 68 | 310 | 1.0 | 7.0 | 0.00 | 0.20 | 0.18 | 100 | 1013.5 |
| 20260831123048 | 67 | 0 | 0.0 | 4.0 | 0.00 | 0.20 | 0.18 | 100 | 1013.6 |
| 20260831122533 | 66 | 0 | 0.0 | 8.0 | 0.00 | 0.20 | 0.18 | 100 | 1013.6 |
| 20260831122033 | 66 | 238 | 0.0 | 9.0 | 0.00 | 0.20 | 0.18 | 100 | 1013.5 |
| 20260831121546 | 66 | 0 | 2.0 | 9.0 | 0.00 | 0.20 | 0.18 | 100 | 1013.4 |
| 20260831121032 | 66 | 253 | 0.0 | 5.0 | 0.00 | 0.20 | 0.18 | 100 | 1013.3 |
| 20260831120532 | 66 | 292 | 0.0 | 5.0 | 0.00 | 0.20 | 0.18 | 100 | 1013.2 |
| 20260831120051 | 65 | 0 | 0.0 | 5.0 | 0.00 | 0.20 | 0.18 | 100 | 1013.2 |
| 20260831115532 | 65 | 0 | 0.0 | 4.0 | 0.00 | 0.20 | 0.18 | 100 | 1013.0 |
| 20260831115031 | 65 | 0 | 0.0 | 3.0 | 0.00 | 0.20 | 0.18 | 100 | 1013.1 |
| 20260831114553 | 65 | 0 | 0.0 | 8.0 | 0.00 | 0.20 | 0.18 | 100 | 1013.0 |
| 20260831114031 | 65 | 0 | 0.0 | 8.0 | 0.00 | 0.20 | 0.18 | 100 | 1012.9 |
| 20260831113533 | 65 | 209 | 2.0 | 8.0 | 0.00 | 0.20 | 0.18 | 100 | 1012.8 |
| 20260831113048 | 65 | 0 | 0.0 | 8.0 | 0.00 | 0.20 | 0.18 | 100 | 1012.9 |